Вернуться в каталог

COSMOS 970 DEB

АктивенLEO
NORAD 64996·DEBRIS·🇷🇺 Russia

Запущен Dec 21, 1977 с Baikonur Cosmodrome

Loading…

Ближайшие Пролёты (ближайшие 24 часа)

TLE

СвежийSource: Space-Track

Эпоха: Sep 14, 2026, 22:29 UTC

1 64996U 77121DH  26257.93746233  .00000363  00000-0  41862-3 0  9997
2 64996  65.8381 234.7464 0116063  32.8083 328.0118 13.78264450643756

Отслеживайте COSMOS 970 DEB в реальном времени с AllMySat

Download on the App Store